Time,TemperatureF,DewpointF,PressureIn,WindDirection,WindDirectionDegrees,WindSpeedMPH,WindSpeedGustMPH,Humidity,HourlyPrecipIn,Conditions,Clouds,dailyrainin,SoftwareType,DateUTC
2013-01-31 07:10:00,74.0,70.6,30.00,East,81,7.0,7.0,89,0.00,,,0.02,Wunderground v.1.15,2013-01-31 11:10:00,
2013-01-31 07:20:00,74.4,70.3,30.00,East,84,10.0,10.0,87,0.00,,,0.02,Wunderground v.1.15,2013-01-31 11:20:00,
2013-01-31 07:30:00,74.6,70.1,30.00,ENE,64,8.0,8.0,86,0.00,,,0.02,Wunderground v.1.15,2013-01-31 11:30:00,
2013-01-31 07:40:00,75.1,70.6,30.01,ENE,68,7.0,7.0,86,0.00,,,0.02,Wunderground v.1.15,2013-01-31 11:40:00,
2013-01-31 13:10:00,80.5,72.6,30.03,ESE,121,8.0,17.0,77,0.00,,,0.03,Wunderground v.1.15,2013-01-31 17:10:00,
2013-01-31 13:20:00,81.2,71.3,30.02,East,84,9.0,19.0,72,0.00,,,0.03,Wunderground v.1.15,2013-01-31 17:20:00,
2013-01-31 13:30:00,82.0,72.1,30.02,ENE,60,9.0,12.0,72,0.00,,,0.03,Wunderground v.1.15,2013-01-31 17:30:00,
2013-01-31 13:40:00,81.8,71.5,30.02,ESE,110,11.0,14.0,71,0.00,,,0.03,Wunderground v.1.15,2013-01-31 17:40:00,
2013-01-31 13:50:00,81.4,71.5,30.01,ESE,120,11.0,11.0,72,0.00,,,0.03,Wunderground v.1.15,2013-01-31 17:50:00,
2013-01-31 14:00:00,81.8,71.5,30.01,ENE,77,11.0,15.0,71,0.00,,,0.03,Wunderground v.1.15,2013-01-31 18:00:00,
2013-01-31 14:10:00,82.0,71.7,30.01,East,84,10.0,14.0,71,0.00,,,0.03,Wunderground v.1.15,2013-01-31 18:10:00,
2013-01-31 14:20:00,81.8,71.5,30.00,East,95,11.0,11.0,71,0.00,,,0.03,Wunderground v.1.15,2013-01-31 18:20:00,
2013-01-31 14:30:00,81.8,71.5,30.00,East,82,9.0,9.0,71,0.00,,,0.03,Wunderground v.1.15,2013-01-31 18:30:00,
2013-01-31 14:40:00,82.2,71.9,30.00,East,99,9.0,9.0,71,0.00,,,0.03,Wunderground v.1.15,2013-01-31 18:40:00,
2013-01-31 14:50:00,79.8,72.3,30.00,ENE,74,9.0,14.0,78,0.89,,,0.09,Wunderground v.1.15,2013-01-31 18:50:00,
2013-01-31 15:00:00,76.1,71.6,30.00,ESE,111,8.0,8.0,86,0.24,,,0.12,Wunderground v.1.15,2013-01-31 19:00:00,
2013-01-31 15:10:00,75.4,71.6,29.99,East,92,5.0,5.0,88,0.06,,,0.13,Wunderground v.1.15,2013-01-31 19:10:00,
2013-01-31 15:20:00,76.3,73.1,29.99,East,90,7.0,9.0,90,0.00,,,0.13,Wunderground v.1.15,2013-01-31 19:20:00,
2013-01-31 15:30:00,76.7,73.2,29.99,East,82,9.0,9.0,89,0.00,,,0.13,Wunderground v.1.15,2013-01-31 19:30:00,
2013-01-31 15:40:00,77.2,73.4,29.98,ENE,74,7.0,7.0,88,0.00,,,0.13,Wunderground v.1.15,2013-01-31 19:40:00,
2013-01-31 15:50:00,77.9,73.4,29.98,SE,125,7.0,9.0,86,0.00,,,0.13,Wunderground v.1.15,2013-01-31 19:50:00,
2013-01-31 16:00:00,78.3,73.1,29.98,ENE,75,9.0,9.0,84,0.00,,,0.13,Wunderground v.1.15,2013-01-31 20:00:00,
2013-01-31 16:10:00,78.6,73.0,29.98,ENE,71,10.0,10.0,83,0.00,,,0.13,Wunderground v.1.15,2013-01-31 20:10:00,
2013-01-31 16:20:00,77.7,71.0,29.98,ENE,76,10.0,13.0,80,0.00,,,0.13,Wunderground v.1.15,2013-01-31 20:20:00,
2013-01-31 16:30:00,78.1,70.7,29.98,NE,42,9.0,11.0,78,0.00,,,0.13,Wunderground v.1.15,2013-01-31 20:30:00,
2013-01-31 16:40:00,78.6,71.9,29.98,ENE,72,10.0,16.0,80,0.00,,,0.13,Wunderground v.1.15,2013-01-31 20:40:00,
2013-01-31 16:50:00,77.4,71.1,29.98,ENE,72,12.0,12.0,81,0.00,,,0.13,Wunderground v.1.15,2013-01-31 20:50:00,
2013-01-31 17:00:00,76.7,71.5,29.98,East,84,11.0,14.0,84,0.00,,,0.13,Wunderground v.1.15,2013-01-31 21:00:00,
2013-01-31 17:10:00,77.2,71.6,29.98,East,80,9.0,9.0,83,0.00,,,0.13,Wunderground v.1.15,2013-01-31 21:10:00,
2013-01-31 17:20:00,77.0,70.7,29.98,ENE,75,9.0,18.0,81,0.00,,,0.13,Wunderground v.1.15,2013-01-31 21:20:00,
2013-01-31 17:30:00,77.0,70.7,29.98,ENE,74,10.0,11.0,81,0.00,,,0.13,Wunderground v.1.15,2013-01-31 21:30:00,
2013-01-31 17:40:00,77.0,70.7,29.99,ENE,77,11.0,15.0,81,0.00,,,0.13,Wunderground v.1.15,2013-01-31 21:40:00,
2013-01-31 17:50:00,76.7,71.1,29.99,East,85,11.0,14.0,83,0.00,,,0.13,Wunderground v.1.15,2013-01-31 21:50:00,
2013-01-31 18:00:00,75.6,69.7,29.99,East,84,11.0,11.0,82,0.00,,,0.13,Wunderground v.1.15,2013-01-31 22:00:00,
2013-01-31 18:10:00,75.6,70.1,29.99,ENE,68,9.0,10.0,83,0.00,,,0.13,Wunderground v.1.15,2013-01-31 22:10:00,